Flag for Brazil Weather past 2 weeks in Florianópolis, Santa Catarina, Brazil

Now
79 °F

Passing clouds.


Feels Like: 81 °F
Forecast: 76 / 84 °F
Wind: 8 mph from Northeast

Location: Florianopolis Aeroporto

Current Time: Mar 2, 2015 at 9:18:44 PM

Latest Report: Mar 2, 2015 at 9:00 PM


Visibility: N/A

Pressure: 30.01 "Hg

Humidity: 70%

Dew point: 68 °F

Location of FlorianópolisLocation

Historic Weather in Florianópolis — Graph

°F

Florianópolis temperature yesterday

Maximum temperature yesterday: 84 °F (at 2:00 PM)
Minimum temperature yesterday: 68 °F (at 5:00 AM)
Average temperature yesterday: 76 °F

Past Weeks' High & Low Weather Summary

 TemperatureHumidityPressure
High91 °F (Feb 25, 2:00 PM)100% (Feb 18, 5:00 AM)30.15 "Hg (Feb 18, 5:00 AM)
Low68 °F (Mar 1, 5:00 AM)41% (Feb 25, 2:00 PM)29.65 "Hg (Feb 19, 4:00 PM)
Average78 °F76%29.94 "Hg
* Reported Feb 15 9:00 PM — Mar 2 8:00 PM, Florianópolis, Weather by CustomWeather, © 2015

Note: Actual official high and low records may vary slightly from our data, if they occured in-between our weather recording intervals... More about our weather records

Advertising

Florianópolis weather history for previous 24 hours

 ConditionsComfort  
Time TempWeatherWind HumidityBarometerVisibility
8:00 PM
Mon, Mar 2
79 °FPassing clouds.6 mph70%29.98 "HgN/A
7:00 PM81 °FPassing clouds.8 mph66%29.98 "HgN/A
6:00 PM81 °FPassing clouds.13 mph66%29.98 "HgN/A
5:00 PM82 °FScattered clouds.13 mph62%29.98 "HgN/A
4:00 PM84 °FScattered clouds.15 mph55%29.98 "HgN/A
3:00 PM84 °FScattered clouds.15 mph51%29.98 "HgN/A
2:00 PM84 °FScattered clouds.16 mph55%30.01 "HgN/A
1:00 PM86 °FScattered clouds.5 mph55%30.04 "HgN/A
12:00 PM84 °FScattered clouds.13 mph55%30.07 "HgN/A
11:00 AM82 °FScattered clouds.14 mph58%30.09 "HgN/A
10:00 AM82 °FPartly sunny.12 mph62%30.09 "HgN/A
9:00 AM79 °FScattered clouds.3 mph70%30.09 "HgN/A
8:00 AM75 °FScattered clouds.6 mph78%30.09 "HgN/A
7:00 AM75 °FScattered clouds.5 mph69%30.07 "HgN/A
6:00 AM73 °FPassing clouds.3 mph74%30.07 "HgN/A
5:00 AM75 °FClear.5 mph69%30.07 "Hg10 mi
4:00 AM75 °FClear.5 mph69%30.07 "Hg10 mi
3:00 AM77 °FClear.7 mph65%30.07 "Hg10 mi
2:00 AM77 °FPassing clouds.6 mph65%30.07 "HgN/A
1:00 AM77 °FPassing clouds.8 mph69%30.09 "HgN/A
12:00 AM75 °FPassing clouds.No wind74%30.09 "HgN/A
11:00 PM
Sun, Mar 1
79 °FPassing clouds.9 mph61%30.09 "HgN/A
10:00 PM79 °FPassing clouds.8 mph61%30.09 "HgN/A
9:00 PM77 °FPassing clouds.5 mph65%30.09 "HgN/A
Weather by CustomWeather, © 2015

See weather overviewHow to use our weather pages